[[{"header":{"parameterUnit":"m.s-1","parameterCategory":1,"la1":30.2991,"la2":30.254,"lo1":-89.0895,"lo2":-89.0444,"dy":0.0017,"dx":0.0017,"nx":28,"ny":28,"refTime":"2024-06-19T09:00:00:Z","depth":0,"parameterNumber":2,"parameterNumberName":"U-component_of_WINDS"},"data":[0,0,0,0,0,0,0,0,0,0,0,0,0,0,0,0,0,0,0,0,0,0,0,0,0,0,0,0,0,0,0,0,0,0,0,0,0,0,0,0,0,0,0,0,0,0,0,0,0,0,0,0,0,0,0,0,0,0,-7.3271,-7.3272,0,-7.336,-7.3361,-7.3362,-7.3151,-7.3144,-7.3137,-7.3131,-7.3228,-7.3236,-7.3245,0,0,0,0,0,0,0,0,0,0,0,0,0,-7.2921,-7.2928,-7.3271,-7.3272,-7.3273,-7.336,-7.3361,-7.3362,-7.3152,-7.3144,-7.3135,-7.3128,-7.3225,-7.3235,-7.3246,0,0,0,0,0,0,0,0,0,0,0,0,0,-7.3048,-7.2931,-7.3271,-7.3178,-7.3171,-7.336,-7.3361,-7.3363,-7.3154,-7.3143,-7.3133,-7.3124,-7.3221,-7.3234,-7.3247,-7.3531,0,0,-7.3288,-7.3293,0,0,0,0,0,0,0,0,-7.3041,-7.3061,-7.3191,-7.3185,-7.3177,-7.3234,-7.3273,-7.3419,-7.3156,-7.316,-7.3131,-7.3119,-7.3238,-7.3249,-7.3288,-7.3536,-7.354,-7.3289,-7.3297,-7.3303,-7.3306,0,0,0,0,0,0,0,-7.3033,-7.3056,-7.3306,-7.3193,-7.3185,-7.3133,-7.314,-7.33,-7.3255,-7.3159,-7.3144,-7.3157,-7.3232,-7.3276,-7.3289,-7.3541,-7.3288,-7.33,-7.3308,-7.3314,-7.4025,-7.4035,0,0,0,0,0,0,-7.3035,-7.305,-7.3303,-7.3309,-7.3083,-7.3148,-7.3156,-7.3226,-7.3253,-7.3247,-7.3166,-7.3147,-7.3258,-7.3274,-7.3292,-7.3625,-7.3302,-7.3315,-7.3323,-7.4014,-7.4027,-7.4039,0,0,0,0,0,0,-7.3028,-7.306,-7.33,-7.3175,-7.3202,-7.3165,-7.3245,-7.3233,-7.3276,-7.3257,-7.3249,-7.3219,-7.3251,-7.3273,-7.3472,-7.3626,-7.3321,-7.3333,-7.4001,-7.4018,-7.4033,-7.4296,0,0,0,0,0,0,-7.3019,-7.3058,-7.3166,-7.3179,-7.3209,-7.3479,-7.3255,-7.3242,-7.3299,-7.3276,-7.3305,-7.33,-7.3245,-7.3454,-7.3486,-7.3639,-7.3343,-7.3987,-7.4009,-7.4028,-7.4274,-7.4319,-7.4359,0,0,0,0,0,-7.3007,-7.3237,-7.3172,-7.3204,-7.3342,-7.3488,-7.3505,-7.3436,-7.3312,-7.342,-7.3408,-7.3299,-7.3604,-7.3476,-7.351,-7.367,-7.3977,-7.4003,-7.4026,-7.4255,-7.431,-7.4358,0,0,0,0,0,0,-7.3245,-7.3237,-7.3165,-7.3406,-7.3449,-7.3452,-7.3586,-7.3498,-7.3578,-7.3553,-7.3465,-7.3473,-7.369,-7.3699,-7.3557,-7.3945,-7.3769,-7.3802,-7.3931,-7.3984,-7.4026,-7.402,-7.3354,0,0,0,0,0,-7.3324,-7.3442,-7.343,-7.3644,-7.3669,-7.3625,-7.3685,-7.3628,-7.367,-7.3687,-7.3689,-7.3736,-7.3841,-7.3913,-7.4009,-7.4273,-7.4277,-7.44,-7.4442,-7.4477,-7.4507,-7.4647,-7.4701,-7.412,-7.412,-7.4119,0,0,-7.3492,-7.3502,-7.3583,-7.3692,-7.3718,-7.3843,-7.3641,-7.3782,-7.3874,-7.3709,-7.3897,-7.3901,-7.3946,-7.4179,-7.4282,-7.4194,-7.4668,-7.4508,-7.4537,-7.4547,-7.4678,-7.4733,-7.4782,-7.4136,-7.4133,-7.4131,0,0,-7.386,-7.388,-7.406,-7.409,-7.4132,-7.41,-7.4144,-7.416,-7.4155,-7.4342,-7.4221,-7.4329,-7.4514,-7.4551,-7.4594,-7.4975,-7.4878,-7.5009,-7.5232,-7.5369,-7.5415,-7.5455,-7.5592,-7.5642,-7.5038,-7.5039,-7.5039,0,-7.4063,-7.4245,-7.4164,-7.4313,-7.4365,-7.4218,-7.44,-7.4434,-7.4507,-7.4546,-7.4446,-7.4673,-7.4693,-7.4933,-7.5026,-7.5065,-7.5113,-7.5006,-7.5415,-7.5454,-7.5491,-7.562,-7.5671,-7.5054,-7.5053,-7.5051,-7.505,0,-7.4493,-7.4621,-7.4761,-7.4833,-7.49,-7.5066,-7.501,-7.5088,-7.5024,-7.5004,-7.5196,-7.5215,-7.5312,-7.5364,-7.5305,-7.5596,-7.554,-7.5429,-7.5251,-7.5563,-7.5683,-7.5732,-7.5077,-7.5071,-7.5067,-7.5063,0,0,-7.5015,-7.5037,-7.5091,-7.5121,-7.5156,-7.5254,-7.5412,-7.5505,-7.5574,-7.5629,-7.576,-7.5919,-7.5815,-7.5865,-7.5807,-7.5928,-7.6229,-7.5802,-7.5801,-7.5881,-7.6552,-7.6635,-7.6694,-7.6164,-7.6173,-7.6181,-7.6548,0,-7.5379,-7.5649,-7.558,-7.5849,-7.5966,-7.5829,-7.5966,-7.6004,-7.5988,-7.6087,-7.607,-7.6184,-7.6039,-7.6067,-7.6181,-7.6169,-7.6363,-7.6141,-7.6287,-7.6293,-7.6281,-7.6756,-7.6846,-7.7191,-7.6594,-7.6602,-7.6608,0,-7.584,-7.591,-7.6191,-7.6205,-7.6252,-7.6377,-7.6457,-7.6552,-7.6591,-7.6571,-7.6626,-7.6545,-7.6702,-7.6522,-7.6737,-7.6588,-7.6644,-7.6647,-7.6658,-7.667,-7.647,-7.6782,-7.73,-7.7352,-7.668,-7.6675,-7.6669,0,-7.6193,-7.6358,-7.6547,-7.6577,-7.6599,-7.669,-7.6703,-7.6732,-7.6792,-7.6862,-7.69,-7.6989,-7.7038,-7.7108,-7.7053,-7.6927,-7.7278,-7.7093,-7.7268,-7.727,-7.7349,-7.7345,-7.7884,-7.7384,-7.7383,-7.7382,-7.7381,0,-7.6608,-7.6785,-7.6705,-7.6822,-7.7017,-7.6935,-7.713,-7.7128,-7.7155,-7.7269,-7.7156,-7.7266,-7.7185,-7.7289,-7.7247,-7.7432,-7.7455,-7.7445,-7.7432,-7.7456,-7.7457,-7.7491,-7.7466,-7.7396,-7.7393,-7.739,-7.7388,0,-7.7036,-7.6989,-7.7186,-7.7189,-7.7194,-7.7338,-7.7341,-7.745,-7.7425,-7.7571,-7.7601,-7.7564,-7.7679,-7.7631,-7.7754,-7.7725,-7.7963,-7.7918,-7.795,-7.7939,-7.8115,-7.81,-7.8696,-7.877,-7.8223,-7.8228,-7.8232,0,-7.7303,-7.7436,-7.7453,-7.752,-7.7541,-7.7652,-7.7712,-7.7637,-7.7704,-7.7758,-7.7861,-7.7966,-7.8046,-7.8238,-7.8223,-7.8317,-7.8273,-7.8476,-7.8287,-7.8307,-7.8277,-7.827,-7.8283,-7.8514,-7.8521,-7.8526,-7.853,0,-7.7784,-7.7754,-7.7844,-7.7927,-7.8001,-7.8063,-7.8115,-7.8178,-7.8105,-7.8187,-7.8302,-7.8365,-7.8489,-7.8596,-7.8678,-7.8693,-7.8602,-7.8589,-7.8635,-7.8661,-7.8674,-7.867,-7.8054,-7.8576,-7.8572,-7.8568,-7.8566,-7.8564,-7.814,-7.8251,-7.828,-7.8384,-7.8415,-7.8466,-7.8568,-7.8555,-7.865,-7.8744,-7.8694,-7.8829,-7.8864,-7.8965,-7.8993,-7.9098,-7.9019,-7.9085,-7.9102,-7.9119,-7.9143,-7.8657,-7.9113,-7.9112,-7.911,-7.9109,-7.9108,0,-7.8614,-7.8625,-7.8722,-7.8797,-7.888,-7.8783,-7.8835,-7.8911,-7.9031,-7.9071,-7.9151,-7.9285,-7.9387,-7.938,-7.9474,-7.9561,-7.9521,-7.9588,-7.9581,-7.9586,-7.9208,-7.9159,-7.9619,-7.9619,-7.9618,-7.9618,-7.9618,-7.9618,-7.8871,-7.9054,-7.9028,-7.9225,-7.9234,-7.9365,-7.9403,-7.945,-7.9481,-7.9634,-7.9718,-7.9711,-7.9733,-7.9827,-7.9918,-7.9913,-7.9953,-8.0037,-8.0017,-7.9664,-7.9613,-7.9565,-7.9519,-8.0046,-8.0047,-8.0386,-8.0389,-8.0392]},{"header":{"parameterUnit":"m.s-1","parameterCategory":1,"la1":30.2991,"la2":30.254,"lo1":-89.0895,"lo2":-89.0444,"dy":0.0017,"dx":0.0017,"nx":28,"ny":28,"refTime":"2024-06-19T09:00:00:Z","depth":0,"parameterNumber":3,"parameterNumberName":"V-component_of_WINDS"},"data":[0,0,0,0,0,0,0,0,0,0,0,0,0,0,0,0,0,0,0,0,0,0,0,0,0,0,0,0,0,0,0,0,0,0,0,0,0,0,0,0,0,0,0,0,0,0,0,0,0,0,0,0,0,0,0,0,0,0,-1.5492,-1.5492,0,-1.5475,-1.5475,-1.5475,-1.5471,-1.5471,-1.5471,-1.5471,-1.5452,-1.5451,-1.5451,0,0,0,0,0,0,0,0,0,0,0,0,0,-1.5518,-1.5518,-1.5492,-1.5492,-1.5492,-1.5475,-1.5475,-1.5474,-1.5471,-1.5471,-1.5471,-1.5471,-1.5452,-1.5451,-1.5451,0,0,0,0,0,0,0,0,0,0,0,0,0,-1.5505,-1.5518,-1.5492,-1.5488,-1.5487,-1.5475,-1.5475,-1.5474,-1.5471,-1.5471,-1.5471,-1.5471,-1.5452,-1.5451,-1.545,-1.5441,0,0,-1.5448,-1.5447,0,0,0,0,0,0,0,0,-1.5505,-1.5504,-1.5489,-1.5488,-1.5487,-1.5475,-1.5477,-1.5463,-1.547,-1.5477,-1.5471,-1.5471,-1.5459,-1.5458,-1.5454,-1.544,-1.5439,-1.5448,-1.5447,-1.5447,-1.5446,0,0,0,0,0,0,0,-1.5506,-1.5504,-1.5485,-1.5488,-1.5488,-1.5486,-1.5484,-1.5474,-1.5467,-1.5476,-1.5476,-1.5474,-1.5459,-1.5455,-1.5454,-1.5439,-1.5448,-1.5447,-1.5446,-1.5446,-1.5413,-1.5412,0,0,0,0,0,0,-1.5509,-1.5505,-1.5486,-1.5485,-1.5497,-1.5485,-1.5483,-1.5479,-1.5467,-1.5466,-1.5474,-1.5474,-1.5457,-1.5455,-1.5453,-1.5439,-1.5447,-1.5446,-1.5445,-1.5413,-1.5413,-1.5412,0,0,0,0,0,0,-1.5509,-1.5507,-1.5487,-1.5495,-1.5492,-1.5484,-1.548,-1.5478,-1.5474,-1.5466,-1.5464,-1.5471,-1.5457,-1.5454,-1.5443,-1.5438,-1.5445,-1.5444,-1.5413,-1.5413,-1.5412,-1.5412,0,0,0,0,0,0,-1.551,-1.5507,-1.5504,-1.5495,-1.5492,-1.5478,-1.5479,-1.5478,-1.5473,-1.5473,-1.5463,-1.5461,-1.5457,-1.5445,-1.5442,-1.5437,-1.5444,-1.5414,-1.5413,-1.5412,-1.5412,-1.5411,-1.5411,0,0,0,0,0,-1.5511,-1.5505,-1.5504,-1.5502,-1.5488,-1.5478,-1.5476,-1.5471,-1.5473,-1.5469,-1.5463,-1.5462,-1.5439,-1.5444,-1.5441,-1.5435,-1.5414,-1.5413,-1.5413,-1.5413,-1.5412,-1.5411,0,0,0,0,0,0,-1.5515,-1.5504,-1.5503,-1.5495,-1.5487,-1.5477,-1.5473,-1.5471,-1.5463,-1.5463,-1.5457,-1.5455,-1.5443,-1.5438,-1.5443,-1.5424,-1.5426,-1.5425,-1.5427,-1.5426,-1.5426,-1.5427,-1.5443,0,0,0,0,0,-1.5515,-1.5508,-1.5499,-1.5492,-1.5489,-1.5481,-1.5477,-1.5473,-1.5465,-1.5462,-1.5455,-1.5447,-1.5438,-1.5432,-1.5423,-1.5412,-1.5408,-1.5406,-1.5405,-1.5405,-1.5403,-1.5394,-1.5392,-1.541,-1.541,-1.541,0,0,-1.5515,-1.5508,-1.5504,-1.5493,-1.5487,-1.5478,-1.5479,-1.5471,-1.5464,-1.5461,-1.545,-1.5444,-1.5434,-1.5422,-1.5416,-1.5417,-1.5397,-1.5404,-1.5403,-1.5402,-1.5393,-1.5391,-1.5389,-1.5409,-1.5409,-1.5409,0,0,-1.551,-1.5505,-1.5498,-1.5491,-1.5481,-1.5476,-1.5474,-1.5464,-1.546,-1.5449,-1.5445,-1.5437,-1.5422,-1.5414,-1.5408,-1.5397,-1.5394,-1.5394,-1.539,-1.538,-1.5379,-1.5377,-1.5371,-1.5369,-1.5393,-1.5393,-1.5393,0,-1.551,-1.5499,-1.5494,-1.5485,-1.5479,-1.5475,-1.5467,-1.546,-1.5448,-1.5444,-1.5445,-1.5424,-1.5417,-1.5402,-1.5399,-1.5395,-1.5391,-1.5395,-1.538,-1.5378,-1.5377,-1.5371,-1.5368,-1.5393,-1.5393,-1.5393,-1.5393,0,-1.5499,-1.5491,-1.5486,-1.5474,-1.5467,-1.5459,-1.5451,-1.5444,-1.5441,-1.5435,-1.5421,-1.5413,-1.5401,-1.5397,-1.5394,-1.538,-1.5381,-1.5381,-1.5383,-1.5375,-1.5369,-1.5367,-1.5393,-1.5393,-1.5393,-1.5393,0,0,-1.5498,-1.5481,-1.5479,-1.5473,-1.546,-1.5453,-1.5443,-1.5431,-1.5425,-1.5416,-1.5406,-1.5392,-1.5391,-1.5384,-1.538,-1.5372,-1.536,-1.5373,-1.5372,-1.5369,-1.5341,-1.534,-1.5337,-1.5359,-1.5358,-1.5358,-1.5341,0,-1.549,-1.5473,-1.5467,-1.5452,-1.5443,-1.5438,-1.5428,-1.5419,-1.5412,-1.5402,-1.5395,-1.5384,-1.5385,-1.538,-1.5372,-1.5363,-1.5354,-1.5365,-1.5347,-1.5347,-1.5349,-1.5335,-1.5334,-1.5319,-1.5339,-1.5338,-1.5338,0,-1.548,-1.547,-1.5454,-1.544,-1.5436,-1.5428,-1.5415,-1.5406,-1.5394,-1.539,-1.5381,-1.5376,-1.5363,-1.5366,-1.5347,-1.5354,-1.5346,-1.5341,-1.534,-1.5337,-1.5341,-1.533,-1.5314,-1.5311,-1.5335,-1.5335,-1.5335,0,-1.5478,-1.5461,-1.5448,-1.5443,-1.5427,-1.5421,-1.5414,-1.5402,-1.5395,-1.5383,-1.5377,-1.5364,-1.5356,-1.5345,-1.5336,-1.534,-1.5317,-1.532,-1.5311,-1.5311,-1.5306,-1.5306,-1.5287,-1.5303,-1.5303,-1.5303,-1.5303,0,-1.547,-1.546,-1.5447,-1.5439,-1.5427,-1.5419,-1.5406,-1.5399,-1.5388,-1.5377,-1.5371,-1.5361,-1.5351,-1.5338,-1.5331,-1.5314,-1.5311,-1.5306,-1.5304,-1.5306,-1.5306,-1.53,-1.53,-1.5303,-1.5303,-1.5303,-1.5303,0,-1.5466,-1.5458,-1.5443,-1.5429,-1.5424,-1.5416,-1.5402,-1.5393,-1.5386,-1.5372,-1.5368,-1.5355,-1.534,-1.533,-1.5311,-1.5306,-1.5287,-1.5286,-1.5291,-1.529,-1.528,-1.528,-1.5255,-1.525,-1.5271,-1.5271,-1.5271,0,-1.5461,-1.5453,-1.5437,-1.5429,-1.5422,-1.541,-1.5402,-1.5392,-1.5383,-1.5367,-1.5359,-1.5344,-1.5331,-1.5306,-1.5294,-1.5279,-1.5276,-1.5268,-1.5274,-1.5275,-1.5273,-1.5273,-1.5271,-1.5267,-1.5267,-1.5267,-1.5267,0,-1.5453,-1.5448,-1.5436,-1.5422,-1.5412,-1.54,-1.5388,-1.5382,-1.537,-1.536,-1.5344,-1.5334,-1.5313,-1.5296,-1.5279,-1.527,-1.5265,-1.5265,-1.5262,-1.5263,-1.5265,-1.5261,-1.5287,-1.5266,-1.5266,-1.5266,-1.5266,-1.5266,-1.5447,-1.5438,-1.5425,-1.5411,-1.5401,-1.5389,-1.5379,-1.5369,-1.5356,-1.5338,-1.5333,-1.5316,-1.53,-1.5276,-1.5267,-1.5252,-1.5252,-1.5248,-1.5247,-1.5245,-1.5244,-1.5268,-1.5249,-1.5249,-1.5249,-1.5249,-1.5249,0,-1.5436,-1.5427,-1.5414,-1.5397,-1.5385,-1.5382,-1.5368,-1.5358,-1.5343,-1.5329,-1.5316,-1.5295,-1.5278,-1.5264,-1.5246,-1.5236,-1.5234,-1.5232,-1.5232,-1.5229,-1.5246,-1.5249,-1.5234,-1.5234,-1.5234,-1.5234,-1.5234,-1.5234,-1.543,-1.5414,-1.5407,-1.5385,-1.5375,-1.5358,-1.535,-1.5338,-1.5326,-1.5304,-1.529,-1.5281,-1.5266,-1.5246,-1.5229,-1.5225,-1.5218,-1.5216,-1.5211,-1.5227,-1.5228,-1.523,-1.5233,-1.5215,-1.5215,-1.5196,-1.5196,-1.5195]}]]